This is the latest recevied weather packets stored in our database for station/object KE5QKR. If no packets are shown the sender has not sent any weather packets the latest 10 day(s).
| Time | Temp. | Humidity | Pressure | Rain* | Wind** | Luminosity | Snow |
|---|---|---|---|---|---|---|---|
| 1778192041 | 24.44° C | 86% | 1011.7 hPa | 0 mm | - | 96 W/m² | - |
| 1778191737 | 24.44° C | 86% | 1011.8 hPa | 0 mm | - | 105 W/m² | - |
| 1778191435 | 24.44° C | 86% | 1011.6 hPa | 0 mm | - | 106 W/m² | - |
| 1778191131 | 24.44° C | 85% | 1011.6 hPa | 0 mm | - | 119 W/m² | - |
| 1778190828 | 24.44° C | 85% | 1011.4 hPa | 0 mm | - | 120 W/m² | - |
| 1778190525 | 24.44° C | 85% | 1011.5 hPa | 0 mm | - | 130 W/m² | - |
| 1778190224 | 25° C | 85% | 1011.5 hPa | 0 mm | - | 163 W/m² | - |
| 1778189924 | 25° C | 84% | 1011.4 hPa | 0 mm | - | 178 W/m² | - |
| 1778189621 | 25° C | 84% | 1011.5 hPa | 0 mm | - | 199 W/m² | - |
| 1778189317 | 25° C | 84% | 1011.6 hPa | 0 mm | - | 181 W/m² | - |
| 1778189013 | 25° C | 84% | 1011.4 hPa | 0 mm | - | 164 W/m² | - |
| 1778188710 | 25° C | 83% | 1011.4 hPa | 0 mm | - | 185 W/m² | - |
| 1778188407 | 25.56° C | 82% | 1011.2 hPa | 0 mm | - | 224 W/m² | - |
| 1778188104 | 25° C | 82% | 1011.4 hPa | 0 mm | - | 253 W/m² | - |
| 1778187801 | 25° C | 82% | 1011.2 hPa | 0 mm | - | 221 W/m² | - |
| 1778187497 | 25.56° C | 83% | 1011.2 hPa | 0 mm | - | 219 W/m² | - |
| 1778187194 | 25.56° C | 83% | 1011.5 hPa | 0 mm | - | 216 W/m² | - |
| 1778186890 | 25° C | 82% | 1011.6 hPa | 0 mm | - | 258 W/m² | - |
| 1778186588 | 25° C | 83% | 1011.3 hPa | 0 mm | - | 261 W/m² | - |
| 1778186286 | 25° C | 85% | 1011.4 hPa | 0 mm | - | 174 W/m² | - |
| 1778185983 | 25.56° C | 82% | 1011.5 hPa | 0 mm | - | 182 W/m² | - |
| 1778185679 | 25° C | 82% | 1011.4 hPa | 0 mm | - | 354 W/m² | - |
| 1778185375 | 25° C | 82% | 1011.5 hPa | 0 mm | - | 270 W/m² | - |
| 1778185070 | 25° C | 83% | 1011.4 hPa | 0 mm | - | 189 W/m² | - |
| 1778184767 | 25.56° C | 82% | 1011.5 hPa | 0 mm | - | 273 W/m² | - |
* Rain latest hour (hover to see other rain measurements)
** Current wind speed in m/s (hover to see current wind gust speed)